Change the Weather History Date:

Thursday, June 6, 2013

  Actual Average Record
Temperature  
Mean Temperature 50 °F -  
Max Temperature 57 °F 65 °F 90 °F (1952)
Min Temperature 41 °F 42 °F 33 °F (2007)
Degree Days  
Heating Degree Days 16    
Moisture  
Dew Point 41 °F    
Average Humidity 75    
Maximum Humidity 87    
Minimum Humidity 54    
Precipitation  
Precipitation 0.00 in - - ()
Sea Level Pressure  
Sea Level Pressure 30.06 in    
Wind  
Wind Speed 8 mph (NE)    
Max Wind Speed 16 mph    
Max Gust Speed 23 mph    
Visibility 7 miles    
Events      
Averages and records for this station are not official NWS values.
T = Trace of Precipitation, MM = Missing Value Source: NWS Daily Summary

Daily Weather History Graph

Daily Weather History Graph

Search for Another Location

Airport or City:

Trip Planner

Search our weather history database for the weather conditions in past years. The results will help you decide how hot, cold, wet, or windy it might be!

Date:

Astronomy

Jun. 06, 2013 Rise Set
Actual Time 5:12 AM CDT 8:58 PM CDT
Civil Twilight 4:33 AM CDT 9:38 PM CDT
Nautical Twilight 3:40 AM CDT 10:31 PM CDT
Astronomical Twilight 2:25 AM CDT 11:47 PM CDT
Moon 4:01 AM CDT (6/6) 7:15 PM CDT (6/6)
Length of Visible Light 17h 04m
Length of Day
15h 45m
Waning Crescent, 3% of the Moon is Illuminated
Jun 6
Waning Crescent
Jun 8
New
Jun 16
First Quarter
Jun 23
Full
Jun 29
Last Quarter

Hourly Weather History & Observations

Time (CDT) Temp. Windchill Dew Point Humidity Pressure Visibility Wind Dir Wind Speed Gust Speed Precip Events Conditions
12:11 AM 46.4 °F 43.5 °F 39.2 °F 76% 30.05 in 10.0 mi NNE 5.8 mph - N/A   Overcast
12:31 AM 46.4 °F 43.5 °F 39.2 °F 76% 30.05 in 10.0 mi NE 5.8 mph - N/A   Overcast
12:51 AM 46.4 °F 42.9 °F 39.2 °F 76% 30.05 in 10.0 mi NE 6.9 mph - N/A   Light Drizzle
1:11 AM 46.4 °F 41.9 °F 41.0 °F 81% 30.04 in 10.0 mi NE 9.2 mph - N/A   Light Drizzle
1:31 AM 46.4 °F 41.9 °F 39.2 °F 76% 30.04 in 10.0 mi NE 9.2 mph - N/A   Overcast
1:51 AM 44.6 °F 39.7 °F 39.2 °F 81% 30.04 in 4.0 mi NE 9.2 mph - N/A   Haze
2:11 AM 44.6 °F 40.7 °F 39.2 °F 81% 30.05 in 2.5 mi NE 6.9 mph - N/A   Haze
2:29 AM 44.6 °F 41.4 °F 39.2 °F 81% 30.05 in 2.5 mi NNE 5.8 mph - N/A   Haze
2:51 AM 44.6 °F 40.7 °F 39.2 °F 81% 30.04 in 4.0 mi NE 6.9 mph - N/A   Overcast
3:11 AM 44.6 °F 40.2 °F 39.2 °F 81% 30.04 in 3.0 mi NE 8.1 mph - N/A   Haze
3:31 AM 44.6 °F 40.7 °F 39.2 °F 81% 30.04 in 3.0 mi NE 6.9 mph - N/A   Haze
3:51 AM 44.6 °F 40.7 °F 39.2 °F 81% 30.03 in 3.0 mi NE 6.9 mph - N/A   Haze
4:11 AM 44.6 °F 42.2 °F 39.2 °F 81% 30.03 in 3.0 mi NE 4.6 mph - N/A   Haze
4:31 AM 44.6 °F 41.4 °F 39.2 °F 81% 30.04 in 4.0 mi NE 5.8 mph - N/A   Haze
4:51 AM 44.6 °F 41.4 °F 39.2 °F 81% 30.04 in 5.0 mi NE 5.8 mph - N/A   Haze
5:11 AM 44.6 °F 40.7 °F 39.2 °F 81% 30.04 in 5.0 mi NE 6.9 mph - N/A   Haze
5:31 AM 44.6 °F 41.4 °F 39.2 °F 81% 30.04 in 7.0 mi NNE 5.8 mph - N/A   Overcast
5:51 AM 44.6 °F 40.2 °F 39.2 °F 81% 30.04 in 10.0 mi NE 8.1 mph - N/A   Overcast
6:11 AM 44.6 °F 39.7 °F 39.2 °F 81% 30.05 in 10.0 mi NE 9.2 mph - N/A   Overcast
6:31 AM 44.6 °F 39.7 °F 39.2 °F 81% 30.05 in 10.0 mi NE 9.2 mph - N/A   Overcast
6:51 AM 44.6 °F 39.2 °F 39.2 °F 81% 30.05 in 10.0 mi NE 10.4 mph 18.4 mph N/A   Overcast
7:11 AM 44.6 °F 40.2 °F 39.2 °F 81% 30.06 in 3.0 mi NE 8.1 mph - N/A   Haze
7:31 AM 44.6 °F 40.2 °F 39.2 °F 81% 30.06 in 7.0 mi NE 8.1 mph - N/A   Overcast
7:51 AM 44.6 °F 39.2 °F 39.2 °F 81% 30.06 in 5.0 mi NE 10.4 mph - N/A   Light Drizzle
8:11 AM 44.6 °F 41.4 °F 39.2 °F 81% 30.06 in 1.8 mi NE 5.8 mph - N/A   Drizzle
8:31 AM 44.6 °F 39.7 °F 39.2 °F 81% 30.06 in 1.5 mi NE 9.2 mph - N/A   Drizzle
8:51 AM 44.6 °F 39.7 °F 39.2 °F 81% 30.07 in 1.5 mi NE 9.2 mph - N/A   Light Drizzle
9:11 AM 44.6 °F 40.7 °F 39.2 °F 81% 30.07 in 2.5 mi NE 6.9 mph - N/A   Light Drizzle
9:31 AM 44.6 °F 40.7 °F 39.2 °F 81% 30.07 in 3.0 mi NE 6.9 mph - N/A   Haze
9:51 AM 44.6 °F 40.2 °F 39.2 °F 81% 30.07 in 1.5 mi ENE 8.1 mph 16.1 mph N/A   Haze
10:11 AM 46.4 °F 42.9 °F 41.0 °F 81% 30.07 in 1.2 mi NE 6.9 mph - N/A   Haze
10:31 AM 46.4 °F 40.4 °F 41.0 °F 81% 30.07 in 1.2 mi ENE 13.8 mph - N/A   Haze
10:51 AM 46.4 °F 41.9 °F 41.0 °F 81% 30.07 in 1.8 mi NE 9.2 mph - N/A   Haze
11:11 AM 46.4 °F 42.4 °F 41.0 °F 81% 30.08 in 3.0 mi NE 8.1 mph - N/A   Haze
11:32 AM 46.4 °F 41.9 °F 42.8 °F 87% 30.08 in 4.0 mi NE 9.2 mph - N/A   Haze
11:51 AM 46.4 °F 41.1 °F 42.8 °F 87% 30.08 in 5.0 mi ENE 11.5 mph - N/A   Haze
12:11 PM 46.4 °F 42.4 °F 42.8 °F 87% 30.08 in 5.0 mi NE 8.1 mph - N/A   Haze
12:32 PM 48.2 °F - 44.6 °F 87% 30.08 in 10.0 mi NE 8.1 mph 17.3 mph N/A   Overcast
12:51 PM 51.8 °F - 46.4 °F 82% 30.08 in 10.0 mi NE 11.5 mph - N/A   Overcast
1:11 PM 51.8 °F - 46.4 °F 82% 30.07 in 10.0 mi ENE 13.8 mph 21.9 mph N/A   Overcast
1:32 PM 53.6 °F - 46.4 °F 77% 30.07 in 10.0 mi ENE 13.8 mph 20.7 mph N/A   Mostly Cloudy
1:51 PM 55.4 °F - 44.6 °F 67% 30.07 in 10.0 mi ENE 13.8 mph 21.9 mph N/A   Mostly Cloudy
2:11 PM 55.4 °F - 44.6 °F 67% 30.07 in 10.0 mi East 16.1 mph 23.0 mph N/A   Scattered Clouds
2:32 PM 57.2 °F - 44.6 °F 63% 30.06 in 10.0 mi NE 15.0 mph 23.0 mph N/A   Scattered Clouds
2:51 PM 55.4 °F - 42.8 °F 63% 30.07 in 10.0 mi NE 13.8 mph 21.9 mph N/A   Mostly Cloudy
3:11 PM 55.4 °F - 44.6 °F 67% 30.07 in 10.0 mi ENE 15.0 mph 19.6 mph N/A   Mostly Cloudy
3:32 PM 55.4 °F - 42.8 °F 63% 30.06 in 10.0 mi ENE 11.5 mph 20.7 mph N/A   Overcast
3:51 PM 57.2 °F - 42.8 °F 59% 30.06 in 10.0 mi East 15.0 mph - N/A   Overcast
4:11 PM 57.2 °F - 42.8 °F 59% 30.06 in 10.0 mi ENE 15.0 mph 21.9 mph N/A   Scattered Clouds
4:31 PM 55.4 °F - 42.8 °F 63% 30.05 in 10.0 mi East 12.7 mph 18.4 mph N/A   Scattered Clouds
4:51 PM 57.2 °F - 42.8 °F 59% 30.05 in 10.0 mi East 10.4 mph 16.1 mph N/A   Scattered Clouds
5:12 PM 57.2 °F - 42.8 °F 59% 30.06 in 10.0 mi ENE 12.7 mph 18.4 mph N/A   Mostly Cloudy
5:31 PM 57.2 °F - 42.8 °F 59% 30.06 in 10.0 mi East 16.1 mph - N/A   Mostly Cloudy
5:51 PM 55.4 °F - 42.8 °F 63% 30.06 in 10.0 mi East 13.8 mph - N/A   Scattered Clouds
6:12 PM 55.4 °F - 42.8 °F 63% 30.07 in 10.0 mi East 9.2 mph - N/A   Clear
6:31 PM 55.4 °F - 42.8 °F 63% 30.06 in 10.0 mi East 11.5 mph - N/A   Clear
6:51 PM 55.4 °F - 42.8 °F 63% 30.06 in 10.0 mi NE 10.4 mph - N/A   Scattered Clouds
7:11 PM 55.4 °F - 42.8 °F 63% 30.06 in 10.0 mi ENE 10.4 mph 16.1 mph N/A   Mostly Cloudy
7:31 PM 55.4 °F - 39.2 °F 54% 30.06 in 10.0 mi ENE 11.5 mph - N/A   Scattered Clouds
7:52 PM 53.6 °F - 39.2 °F 58% 30.06 in 10.0 mi NE 6.9 mph - N/A   Clear
8:11 PM 53.6 °F - 39.2 °F 58% 30.05 in 10.0 mi NE 4.6 mph - N/A   Clear
8:31 PM 51.8 °F - 37.4 °F 58% 30.05 in 10.0 mi Calm Calm - N/A   Clear
8:51 PM 48.2 °F - 39.2 °F 71% 30.05 in 10.0 mi Calm Calm - N/A   Clear
9:11 PM 46.4 °F - 39.2 °F 76% 30.05 in 10.0 mi Calm Calm - N/A   Clear
9:31 PM 46.4 °F - 37.4 °F 71% 30.05 in 10.0 mi Calm Calm - N/A   Clear
9:51 PM 44.6 °F - 37.4 °F 76% 30.05 in 10.0 mi Calm Calm - N/A   Clear
10:11 PM 42.8 °F 41.1 °F 37.4 °F 81% 30.06 in 10.0 mi NNW 3.5 mph - N/A   Clear
10:31 PM 42.8 °F - 37.4 °F 81% 30.05 in 10.0 mi Calm Calm - N/A   Clear
10:51 PM 42.8 °F - 37.4 °F 81% 30.05 in 10.0 mi Calm Calm - N/A   Mostly Cloudy
11:11 PM 42.8 °F - 37.4 °F 81% 30.05 in 10.0 mi Calm Calm - N/A   Overcast
11:31 PM 42.8 °F - 37.4 °F 81% 30.05 in 10.0 mi Calm Calm - N/A   Scattered Clouds
11:52 PM 41.0 °F - 35.6 °F 81% 30.05 in 10.0 mi Calm Calm - N/A   Clear